BEIDOU-3 M3

Last updated on Wed May 15 2019 03:07:46 GMT+0000 (Coordinated Universal Time)

1 43107U 18003A 19134.17229797 -.00000101 00000-0 00000+0 0 9991 2 43107 55.2417 31.3045 0005138 16.1092 79.8370 1.86232810 9108

Satellite not in orbit

BEIDOU-3 M3